When you browse on this site, cookies collect data to enhance your experience and personalize the content and advertising you see.
Visit our Privacy Policy to learn more. By continuing to use the site, you agree to this use of cookies and data.

Hourly Weather Vejle

Today, 11 July, Saturday

Time Temperature Precipitation Wind Pressure Humidity
00:00 +9°C° 0 mm 6 mps 752 mmHg 84%
01:00 +9°C° 0 mm 6 mps 752 mmHg 84%
02:00 +9°C° 0 mm 6 mps 752 mmHg 84%
03:00 +9°C° 0 mm 6 mps 753 mmHg 83%
04:00 +9°C° 0 mm 6 mps 753 mmHg 83%
05:00 +9°C° 0 mm 6 mps 753 mmHg 81%
06:00 +10°C° 0 mm 7 mps 754 mmHg 78%
07:00 +11°C° 0 mm 7 mps 754 mmHg 76%
08:00 +12°C° 0.1 mm 7 mps 755 mmHg 74%
09:00 +14°C° 0.1 mm 7 mps 755 mmHg 71%
10:00 +15°C° 0.1 mm 8 mps 755 mmHg 69%
11:00 +15°C° 0.2 mm 8 mps 756 mmHg 69%
12:00 +15°C° 0.2 mm 8 mps 756 mmHg 69%
13:00 +15°C° 0.2 mm 8 mps 756 mmHg 69%
14:00 +15°C° 0.1 mm 8 mps 756 mmHg 68%
15:00 +15°C° 0.1 mm 8 mps 757 mmHg 66%
16:00 +15°C° 0.1 mm 8 mps 757 mmHg 64%
17:00 +14°C° 0 mm 7 mps 757 mmHg 68%
18:00 +14°C° 0 mm 6 mps 757 mmHg 72%
19:00 +13°C° 0 mm 6 mps 757 mmHg 76%
20:00 +12°C° 0 mm 5 mps 758 mmHg 81%
21:00 +9°C° 0 mm 5 mps 758 mmHg 86%
22:00 +8°C° 0 mm 4 mps 758 mmHg 90%
23:00 +8°C° 0 mm 4 mps 758 mmHg 91%

Tomorrow, 12 July, Sunday

Time Temperature Precipitation Wind Pressure Humidity
00:00 +8°C° 0 mm 4 mps 758 mmHg 92%
01:00 +8°C° 0 mm 5 mps 758 mmHg 92%
02:00 +8°C° 0 mm 5 mps 758 mmHg 91%
03:00 +9°C° 0 mm 5 mps 758 mmHg 89%
04:00 +9°C° 0 mm 5 mps 758 mmHg 87%
05:00 +10°C° 0 mm 5 mps 758 mmHg 84%
06:00 +11°C° 0 mm 6 mps 759 mmHg 82%
07:00 +13°C° 0 mm 6 mps 759 mmHg 79%
08:00 +12°C° 0 mm 7 mps 759 mmHg 76%
09:00 +14°C° 0 mm 7 mps 759 mmHg 72%
10:00 +15°C° 0 mm 7 mps 759 mmHg 69%
11:00 +15°C° 0 mm 7 mps 760 mmHg 68%
12:00 +16°C° 0 mm 7 mps 760 mmHg 68%
13:00 +16°C° 0 mm 7 mps 760 mmHg 68%
14:00 +16°C° 0.1 mm 7 mps 760 mmHg 71%
15:00 +15°C° 0.1 mm 7 mps 760 mmHg 74%
16:00 +15°C° 0.1 mm 7 mps 760 mmHg 77%
17:00 +14°C° 0 mm 7 mps 760 mmHg 78%
18:00 +14°C° 0 mm 6 mps 760 mmHg 80%
19:00 +14°C° 0 mm 6 mps 760 mmHg 81%
20:00 +13°C° 0 mm 6 mps 760 mmHg 83%
21:00 +13°C° 0 mm 5 mps 760 mmHg 85%
22:00 +12°C° 0 mm 5 mps 760 mmHg 87%
23:00 +12°C° 0 mm 5 mps 760 mmHg 88%

Day after tomorrow, 13 July, Monday

Time Temperature Precipitation Wind Pressure Humidity
00:00 +12°C° 0 mm 5 mps 760 mmHg 88%
01:00 +12°C° 0 mm 5 mps 760 mmHg 89%
02:00 +12°C° 0 mm 5 mps 759 mmHg 88%
03:00 +12°C° 0 mm 5 mps 759 mmHg 87%
04:00 +12°C° 0 mm 5 mps 759 mmHg 86%
05:00 +13°C° 0 mm 5 mps 759 mmHg 85%
06:00 +13°C° 0 mm 5 mps 759 mmHg 84%
07:00 +14°C° 0 mm 5 mps 759 mmHg 82%
08:00 +14°C° 0 mm 5 mps 759 mmHg 80%
09:00 +15°C° 0 mm 5 mps 759 mmHg 79%
10:00 +15°C° 0 mm 5 mps 759 mmHg 77%
11:00 +16°C° 0 mm 5 mps 759 mmHg 73%
12:00 +17°C° 0 mm 5 mps 759 mmHg 70%
13:00 +19°C° 0 mm 5 mps 759 mmHg 67%
14:00 +19°C° 0 mm 5 mps 759 mmHg 67%
15:00 +19°C° 0 mm 5 mps 759 mmHg 67%
16:00 +19°C° 0 mm 5 mps 758 mmHg 68%
17:00 +18°C° 0 mm 4 mps 758 mmHg 71%
18:00 +17°C° 0 mm 4 mps 758 mmHg 75%
19:00 +16°C° 0 mm 3 mps 758 mmHg 78%
20:00 +14°C° 0 mm 3 mps 757 mmHg 83%
21:00 +12°C° 0 mm 3 mps 757 mmHg 88%
22:00 +12°C° 0 mm 2 mps 757 mmHg 93%
23:00 +12°C° 0 mm 2 mps 757 mmHg 94%

14 July, Tuesday

Time Temperature Precipitation Wind Pressure Humidity
00:00 +12°C° 0 mm 2 mps 757 mmHg 95%
01:00 +12°C° 0 mm 2 mps 757 mmHg 95%
02:00 +12°C° 0 mm 2 mps 756 mmHg 95%
03:00 +12°C° 0 mm 2 mps 756 mmHg 95%
04:00 +10°C° 0 mm 3 mps 756 mmHg 95%
05:00 +12°C° 0 mm 3 mps 756 mmHg 92%
06:00 +13°C° 0 mm 3 mps 755 mmHg 88%
07:00 +14°C° 0 mm 4 mps 755 mmHg 84%
08:00 +15°C° 0 mm 4 mps 755 mmHg 80%
09:00 +15°C° 0 mm 4 mps 755 mmHg 76%
10:00 +17°C° 0 mm 4 mps 755 mmHg 73%
11:00 +17°C° 0 mm 5 mps 755 mmHg 71%
12:00 +17°C° 0 mm 5 mps 755 mmHg 69%
13:00 +19°C° 0 mm 5 mps 754 mmHg 67%
14:00 +17°C° 0 mm 5 mps 754 mmHg 70%
15:00 +17°C° 0 mm 5 mps 754 mmHg 74%
16:00 +16°C° 0 mm 5 mps 753 mmHg 77%
17:00 +15°C° 0.2 mm 4 mps 753 mmHg 82%
18:00 +15°C° 0.2 mm 4 mps 753 mmHg 86%
19:00 +14°C° 0.2 mm 3 mps 752 mmHg 91%
20:00 +14°C° 0.1 mm 3 mps 752 mmHg 91%
21:00 +13°C° 0.1 mm 3 mps 752 mmHg 92%
22:00 +13°C° 0.1 mm 4 mps 751 mmHg 92%
23:00 +13°C° 0 mm 4 mps 751 mmHg 91%

15 July, Wednesday

Time Temperature Precipitation Wind Pressure Humidity
00:00 +13°C° 0 mm 4 mps 751 mmHg 91%
01:00 +13°C° 0 mm 4 mps 750 mmHg 90%
02:00 +13°C° 0.2 mm 4 mps 750 mmHg 91%
03:00 +14°C° 0.2 mm 5 mps 749 mmHg 92%
04:00 +14°C° 0.2 mm 5 mps 749 mmHg 93%
05:00 +14°C° 0.7 mm 5 mps 748 mmHg 94%
06:00 +14°C° 0.7 mm 6 mps 748 mmHg 95%
07:00 +14°C° 0.7 mm 6 mps 748 mmHg 96%
08:00 +14°C° 0.8 mm 6 mps 748 mmHg 95%
09:00 +13°C° 0.8 mm 6 mps 747 mmHg 94%
10:00 +12°C° 0.8 mm 7 mps 747 mmHg 93%
11:00 +12°C° 0.5 mm 7 mps 747 mmHg 93%
12:00 +12°C° 0.5 mm 7 mps 747 mmHg 93%
13:00 +14°C° 0.5 mm 7 mps 748 mmHg 93%
14:00 +14°C° 0.2 mm 7 mps 748 mmHg 93%
15:00 +14°C° 0.2 mm 6 mps 747 mmHg 92%
16:00 +15°C° 0.2 mm 6 mps 747 mmHg 91%
17:00 +15°C° 0.2 mm 6 mps 747 mmHg 91%
18:00 +15°C° 0.2 mm 6 mps 747 mmHg 90%
19:00 +15°C° 0.2 mm 6 mps 747 mmHg 89%
20:00 +14°C° 0 mm 6 mps 748 mmHg 91%
21:00 +13°C° 0 mm 6 mps 748 mmHg 93%
22:00 +12°C° 0 mm 5 mps 748 mmHg 94%
23:00 +12°C° 0 mm 5 mps 748 mmHg 93%

16 July, Thursday

Time Temperature Precipitation Wind Pressure Humidity
00:00 +11°C° 0 mm 6 mps 749 mmHg 92%
01:00 +11°C° 0 mm 6 mps 749 mmHg 91%
02:00 +11°C° 0 mm 6 mps 749 mmHg 90%
03:00 +11°C° 0 mm 6 mps 749 mmHg 90%
04:00 +11°C° 0 mm 7 mps 749 mmHg 89%
05:00 +11°C° 0 mm 7 mps 750 mmHg 86%
06:00 +12°C° 0 mm 8 mps 750 mmHg 84%
07:00 +12°C° 0 mm 8 mps 750 mmHg 81%
08:00 +13°C° 0 mm 8 mps 751 mmHg 79%
09:00 +13°C° 0 mm 9 mps 751 mmHg 77%
10:00 +13°C° 0 mm 9 mps 751 mmHg 75%
11:00 +15°C° 0 mm 9 mps 752 mmHg 74%
12:00 +15°C° 0 mm 9 mps 752 mmHg 73%
13:00 +15°C° 0 mm 9 mps 752 mmHg 72%
14:00 +15°C° 0 mm 9 mps 752 mmHg 73%
15:00 +15°C° 0 mm 9 mps 752 mmHg 73%
16:00 +15°C° 0 mm 9 mps 753 mmHg 73%
17:00 +15°C° 0 mm 8 mps 753 mmHg 75%
18:00 +13°C° 0 mm 8 mps 753 mmHg 76%
19:00 +14°C° 0 mm 7 mps 753 mmHg 78%
20:00 +12°C° 0 mm 7 mps 753 mmHg 81%
21:00 +11°C° 0 mm 6 mps 753 mmHg 84%
22:00 +11°C° 0 mm 6 mps 753 mmHg 87%
23:00 +11°C° 0 mm 6 mps 753 mmHg 89%
Show more